1st Responders/1st Detectors/Storm Spotters Weather Summary for Campbell County, KY

Forecast Maps


Reg. NEXRAD Animation


National Fire Danger: Day 1 & 2 Map

Current NWS Watch/Warnings

SPC Convective Day 1 Outlook


Day 2 Outlook

(Click images to enlarge|Page will refresh every 5 minutes)
UK Ag. Weather Center Desktop Severe Weather Service[HERE]
Campbell County, KY Hazardous Weather Outlook Webcast
(9 AM to 9 PM Mon-Fri)
[Fast]
[Dial-up]


UKAWC 1st Detectors/1st Responders Precision Weather Forecast For CAMPBELL County, Kentucky
(based on the NWS County Digital Forecast)

ISSUED AT 22:00 UTC ON SUNDAY JUL 22 2018
DAY SUNDAY MONDAY
EDT 3HR 7P 8P 9P 10P 11P MIDN 1A 2A 3A 4A 5A 6A 7A 8A 9A 10A 11A NOON 1P 2P 3P 4P 5P 6P 7P
MAX/MIN 76° -- -- -- -- -- -- -- -- -- -- -- -- 65° -- -- -- -- -- -- -- -- -- -- 77°
TEMP 74° 74° 72° 70° 70° 68° 67° 67° 67° 65° 65° 65° 65° 67° 68° 70° 72° 74° 76° 76° 77° 77° 77° 77° 76°
SKY COVER 81% 81% 80% 78% 77% 76% 75% 74% 77% 81% 83% 85% 88% 90% 89% 88% 87% 86% 85% 84% 82% 79% 76% 73% 70%
Clouds
DEW PT 67° 67° 67° 67° 67° 65° 65° 65° 63° 63° 63° 63° 63° 63° 63° 63° 63° 65° 65° 65° 65° 67° 67° 67° 67°
RH 78% 81% 86% 86% 90% 89% 93% 93% 90% 93% 92% 93% 93% 86% 80% 78% 73% 71% 68% 69% 66% 69% 68% 68% 71%
POP 12HR -- 73% -- -- -- -- -- -- -- -- -- -- -- 54% -- -- -- -- -- -- -- -- -- -- --
RAIN/SNOW (liq.equ) -- 0.21in -- -- -- -- -- 0.04in -- -- -- -- -- 0.01in -- -- -- -- -- 0.02in -- -- -- -- --
SNOWFALL -- 0in -- -- -- -- -- 0in -- -- -- -- -- 0in -- -- -- -- -- 0in -- -- -- -- --
WIND SPEED(MPH) 6 6 6 7 7 7 7 7 7 6 6 6 6 6 6 6 6 6 6 6 6 6 6 6 5
WIND Gust(MPH) 6 6 6 7 7 7 7 7 7 6 6 6 6 6 6 6 6 6 6 6 6 6 6 6 5
WIND DIR N N N N N N N N N N N N N N N N N N N N N N N N N
DEW Lgt Dew Lgt Dew Mod Dew Mod Dew Mod Dew Mod Dew Mod Dew Mod Dew Mod Dew Mod Dew Mod Dew Mod Dew Mod Dew Mod Dew Mod Dew Lgt Dew Lgt Dew Lgt Dew -- -- -- -- -- -- Lgt Dew
HeatIndex 74 74 72 70 70 68 67 67 67 65 65 65 65 67 68 70 72 74 76 76 77 77 77 77 76
Rain Showers Likely Chance Chance Chance Chance Chance Slight Chance Slight Chance Slight Chance Slight Chance Slight Chance Slight Chance Slight Chance Slight Chance Slight Chance Chance Chance Chance Chance Chance Chance Chance Chance Chance Slight Chance
Thunder Storm Slight Chance Slight Chance -- -- -- -- -- -- -- -- -- -- -- -- -- -- -- Chance Chance Chance Chance Chance Chance Chance Slight Chance
WIND CHILL -- -- -- -- -- -- -- -- -- -- -- -- -- -- -- -- -- -- -- -- -- -- -- -- --
SPRAY COND
DRY COND
LIVESTOCK HEATSTRESS 72.16 72.41 70.98 69.14 69.38 67.44 66.68 66.68 66.55 64.76 64.73 64.76 64.76 66.37 66.99 68.64 70.04 71.58 72.97 73.07 73.60 73.90 73.80 73.80 73.26



DAY TUESDAY WEDNESDAY THURSDAY FRIDAY SATURDAY SUNDAY
EDT 6HR 8P 9P 10P 11P MIDN 1A 2A 3A 4A 5A 6A 8A 11A 2P 5P 8P 11P 2A 5A 8A 11A 2P 5P 8P 2A 8A 2P 8P 2A 8A 2P 8P 2A 8A 2P 8P 2A 8A 2P 8P
MAX/MIN -- -- -- -- -- -- -- -- -- -- -- 65° -- -- 81° -- -- -- -- 67° -- -- 85° -- -- 67° 86° -- -- 67° 83° -- -- 65° 83° -- -- 65° 81° --
TEMP 74° 72° 72° 70° 70° 68° 67° 67° 67° 65° 65° 67° 76° 81° 81° 79° 72° 70° 68° 70° 79° 83° 85° 81° 70° 70° 85° 83° 70° 68° 83° 79° 67° 67° 81° 79° 67° 67° 79° 77°
SKY COVER 68% 67% 64% 63% 62% 61% 60% 61% 62% 63% 63% 66% 66% 69% 73% 75% 70% 66% 69% 67% 61% 60% 56% 52% 33% 26% 30% 36% 49% 48% 38% 45% 51% 55% 48% 64% 56% 70% 64% 70%
Clouds
DEW PT 67° 67° 67° 67° 67° 67° 67° 65° 65° 65° 65° 65° 68° 70° 68° 70° 68° 67° 67° 67° 68° 68° 67° 68° 65° 65° 65° 65° 65° 63° 63° 63° 63° 63° 63° 63° 63° 63° 65° 65°
RH 76% 81% 83% 87% 90% 93% 96% 93% 96% 96% 97% 93% 78% 69% 64% 73% 87% 90% 92% 90% 71% 60% 56% 66% 87% 87% 53% 57% 81% 84% 52% 56% 83% 86% 53% 60% 84% 86% 62% 67%
POP 12HR 29% -- -- -- -- -- -- -- -- -- -- 20% -- -- -- 50% -- -- -- 42% -- -- -- 38% -- 28% -- 15% -- 13% -- 10% -- 14% -- 13% -- 34% -- 42%
RAIN/SNOW (liq.equ) 0.04in -- -- -- -- -- 0.01in -- -- -- -- 0.00in -- 0.01in -- 0.16in -- 0.04in -- 0.01in -- 0.01in -- 0.01in -- -- -- -- -- -- -- -- -- -- -- -- -- -- -- --
SNOWFALL 0in -- -- -- -- -- 0in -- -- -- -- 0in -- 0in -- 0in -- 0in -- 0in -- 0in -- 0in -- -- -- -- -- -- -- -- -- -- -- -- -- -- -- --
WIND SPEED(MPH) 5 5 2 2 2 2 2 2 2 2 2 2 5 2 5 2 1 0 1 0 2 2 5 2 0 1 6 6 1 1 6 6 1 1 2 5 1 2 5 2
WIND DIR N N N N N N N N N N N N N N N N NE N N N N N N NW W W W NW N NW W NW N E W NE E E S E
HeatIndex 74 72 72 70 70 68 67 67 67 65 65 67 76 84 85 79 72 70 68 70 79 87 88 84 70 70 87 85 70 68 84 81 67 67 83 79 67 67 82 77
Rain Showers Slight Chance Slight Chance Slight Chance Slight Chance Slight Chance -- -- -- -- -- -- Slight Chance Chance Chance Chance Chance Chance Chance Chance Chance Chance Chance Chance Chance -- -- Slight Chance -- -- -- -- -- -- -- -- Slight Chance Chance Chance Chance Chance
Thunder Storm Slight Chance Slight Chance -- -- -- -- -- -- -- -- -- -- -- Chance Chance Chance Chance Chance Chance Chance Chance Chance Chance Chance -- -- Slight Chance -- -- -- -- -- -- -- -- Slight Chance Chance Chance Chance Chance
WIND CHILL -- -- -- -- -- -- -- -- -- -- -- -- -- -- -- -- -- -- -- -- -- -- -- -- -- -- -- -- -- -- -- -- -- -- -- -- -- -- -- --
SPRAY COND
DRY COND
LIVESTOCK HEATSTRESS 71.99 70.62 70.77 69.20 69.38 67.65 66.82 66.68 66.82 64.86 64.90 66.68 73.92 77.21 76.60 76.00 71.06 69.38 67.60 69.38 75.78 77.68 78.66 76.85 69.20 69.20 78.23 77.28 68.83 67.19 76.61 74.11 66.23 66.37 75.26 74.56 66.28 66.37 74.78 73.70

Click on individual weather variable above in left-hand column (ie., TEMP, RH, QPF 12HR) to view state forecast maps






NWS 48 Hr. Forecast Maps,

Regional Hourly Observations For CAMPBELL County, Kentucky
Issued at 600 PM EDT SUN JUL 22 2018
...SOUTHERN OHIO/WEST VIRGINIA...
  
CITY           SKY/WX    TMP DP  RH WIND       PRES   REMARKS
COVINGTON        N/A     80  67  64 NE14      29.74R                  
COLUMBUS         N/A     80  64  58 N10       29.74R                  
DAYTON           N/A     77  64  64 N17       29.78R                  
WILMINGTON     CLOUDY    76  68  76 N8        29.74F                  
HUNTINGTON     CLOUDY    78  66  66 CALM      29.71R                  
CHARLESTON     PTSUNNY   73  72  96 CALM      29.73F                  
PINEVILLE*       N/A     73  68  84 MISG      29.83R                  
BECKLEY          N/A     74  62  66 SE8       29.82S                  
BLUEFIELD      PTSUNNY   69  65  86 VRB5      29.85S                  
LOGAN CO APT*    N/A     77  66  69 CALM      29.76S                  


Current NOWCAST not available:
Nowcasts are not issued routinely during fair weather. Only when
precipitation or other significant weather is occuring in this county will these
forecasts be issued. Currently, there is no short term forecast in effect.


Fire Weather Forecast For CAMPBELL County, KY
Provided by the National Weather Service:

Issued at: Sun Jul 22 18:05:01 EDT 2018

CLOUD COVER                     MCldy        MCldy        MCldy
PRECIP TYPE                     Tstms        Tstms        Tstms
CHANCE PRECIP (%)                  70           70           30
TEMP (24H TREND)              77 (-1)      64 (-1)           77
RH % (24H TREND)              72 (-1)      97 (-3)           68
20FTWND-AM(MPH)               Lgt/Var                   Lgt/Var
20FTWND-PM(MPH)               Lgt/Var         N  5      Lgt/Var
PRECIP AMOUNT                    0.30         0.14         0.06
PRECIP DURATION                     6            4            2
MIXING HGT(FT-AGL)               4610                      4280
TRANSPORT WND (MPH)             NE  6                      N  2
LAL                                 3            3            3
HAINES INDEX                        3            3            3

REMARKS...None.

.FORECAST FOR DAYS 3 THROUGH 7...
.MONDAY NIGHT...Mostly cloudy with a chance of showers and thunderstorms.
Lows in the upper 60s. North winds around 5 mph. 
.TUESDAY...Partly sunny with a chance of showers and thunderstorms. Highs
in the lower 80s. Northeast winds around 5 mph. 
.WEDNESDAY...Mostly cloudy with a chance of showers and thunderstorms.
Lows in the upper 60s. Highs in the mid 80s. North winds around 5 mph. 
.THURSDAY...Partly cloudy. Lows in the upper 60s. Highs in the upper 80s.
West winds around 5 mph. 
.FRIDAY...Partly cloudy. Lows in the upper 60s. Highs in the mid 80s.
Northwest winds around 5 mph. 
.SATURDAY...Partly cloudy. Lows in the mid 60s. Highs in the lower 80s.
North winds around 5 mph. 

SPC's Fire Weather Web Tool (Excellent!), SPC's Fire Weather Outlooks, NWS Fire Weather WEB, Fire Danger Class Map,
Keetch-Byram Drought Index, ROMAN Web, Haines Index ,
WFAS's 10-hr Dead Fuel Moist., WFAS's 100-hr Dead Fuel Moist., Probablity of Ignition, Visual blackness Map, Palmer Drought Index, HPC's Rainfall Forecast Maps


Hazardous Weather Outlook For CAMPBELL County, Kentucky
207 PM EDT Sun Jul 22 2018

 DAY ONE  This Afternoon and Tonight.

The probability for widespread hazardous weather is low.

 DAYS TWO THROUGH SEVEN  Monday through Saturday.

The probability for widespread hazardous weather is low.

 SPOTTER INFORMATION STATEMENT  

Spotter activation is not expected at this time.

Latest CAMPBELL County, Kentucky Watches, Warnings and Advisories.
Additional Drought Info.: UKAWC Drought Page, Kentucky Drought Watch


7-Day Forecast For CAMPBELL County, KY

TONIGHT
Mostly cloudy. Showers likely with a slight chance of thunderstorms this evening, then a chance of showers after midnight. Lows in the mid 60s. North winds 5 to 10 mph. Chance of rain 70 percent.

MONDAY
Mostly cloudy. A chance of showers in the morning, then a chance of showers and thunderstorms in the afternoon. Highs in the upper 70s. North winds around 5 mph. Chance of rain 30 percent.

MONDAY NIGHT
Partly cloudy. A chance of showers and thunderstorms in the evening, then a slight chance of showers after midnight. Lows in the upper 60s. North winds around 5 mph. Chance of rain 30 percent.

TUESDAY
Partly cloudy. A chance of showers in the morning, then a chance of showers and thunderstorms in the afternoon. Highs in the lower 80s. North winds around 5 mph. Chance of rain 50 percent.

TUESDAY NIGHT
Mostly cloudy in the evening, then becoming partly cloudy. A chance of showers and thunderstorms. Lows in the upper 60s. North winds around 5 mph in the evening, becoming light and variable. Chance of rain 50 percent.

WEDNESDAY
Partly cloudy with a chance of showers and thunderstorms. Highs in the mid 80s. Chance of rain 40 percent.

WEDNESDAY NIGHT
Partly cloudy. A chance of showers and thunderstorms in the evening. Lows in the upper 60s. Chance of rain 40 percent.

THURSDAY
Mostly sunny. Highs in the upper 80s.

THURSDAY NIGHT
Partly cloudy. Lows in the upper 60s.

FRIDAY
Partly cloudy. Highs in the mid 80s.

FRIDAY NIGHT
Partly cloudy. Lows in the mid 60s.

SATURDAY
Partly cloudy. Highs in the lower 80s.

SATURDAY NIGHT
Partly cloudy. A chance of showers and thunderstorms after midnight. Lows in the mid 60s. Chance of rain 30 percent.

SUNDAY
Partly cloudy with a chance of showers and thunderstorms. Highs in the lower 80s. Chance of rain 40 percent.

Ag Weather Center, Department of Biosystems & Agricultural Engineering, University of Kentucky